www.pogodaiklimat.ru

Погода и климат >> Архив погоды >> Оман >> Diba


ПОГОДА в Diba

  • Прогноз погоды в Diba
  • Монитор погоды в Diba
  • Климат города

АРХИВ ПОГОДЫ в Diba

Время (UTC), дата Ветер
(напр.,м/с)
 
Видим.   Явления Облачность Т
(С)
Тd
(С)
f
(%)
Тe
(С)
Тes
(С)
Комфортность P
(гПа)
Po
(гПа)
Тmin
(С)
Tmax
(С)
R
(мм)
R24
(мм)
S
(см)
12 12.12 СВ 3 н/о н/о +26.1 +14.2 48 +28 +28 жарко 1018.8 1016.2
15 12.12 С 1 н/о н/о +22.3 +15.5 65 +26 +26 жарко 1020.1 1017.5
18 12.12 С 1 н/о н/о +19.2 +14.8 76 +22 +22 комфорт 1020.6 1018.0 +28.6
21 12.12 Ю 1 н/о н/о +18.5 +14.7 79 +20 +20 1020.4 1017.8
00 13.12 штиль 0 н/о н/о +16.4 +13.5 83 +16 +16 1020.2 1017.5
03 13.12 штиль 0 н/о н/о +15.0 +12.7 86 +15 +15 1021.4 1018.8
06 13.12 СВ 1 н/о н/о +24.9 +16.7 60 +28 +28 жарко 1023.7 1021.1 +14.6
09 13.12 СВ 3 н/о н/о +25.6 +14.5 50 +28 +28 жарко 1021.4 1018.8
12 13.12 СВ 3 н/о н/о +24.3 +15.5 58 +27 +27 жарко 1020.5 1018.0
15 13.12 С 2 н/о н/о +22.1 +15.6 67 +26 +26 душно 1021.9 1019.3
18 13.12 штиль 0 н/о н/о +20.0 +15.2 74 +22 +22 комфорт 1022.3 1019.7 +26.3
21 13.12 штиль 0 н/о н/о +18.1 +14.9 82 +18 +18 1021.7 1019.1
00 14.12 ЮЗ 1 н/о н/о +17.7 +15.0 84 +19 +19 1021.5 1018.9
03 14.12 Ю 1 н/о н/о +17.0 +14.7 86 +18 +18 1022.7 1020.1
06 14.12 В 2 н/о н/о +24.6 +16.2 60 +28 +28 душно 1024.3 1021.7 +16.5
09 14.12 СВ 3 н/о н/о +25.6 +16.0 55 +29 +29 душно 1022.1 1019.5
12 14.12 СВ 3 н/о н/о +24.9 +17.4 63 +29 +29 душно 1021.3 1018.7
15 14.12 СВ 1 н/о н/о +22.8 +17.5 72 +28 +28 душно 1022.8 1020.2
18 14.12 В 1 н/о н/о +21.0 +17.2 79 +26 +26 душно 1023.1 1020.5 +26.0
21 14.12 Ю 1 н/о н/о +19.8 +17.1 84 +23 +23 комфорт 1022.2 1019.6
00 15.12 З 2 н/о н/о +18.8 +16.5 86 +21 +21 комфорт 1021.8 1019.2
03 15.12 ЮЗ 1 н/о н/о +19.4 +16.6 84 +22 +22 комфорт 1022.5 1019.9
06 15.12 СВ 2 н/о н/о +25.2 +17.4 62 +29 +29 душно 1024.2 1021.6 +18.2
09 15.12 СВ 3 н/о н/о +25.3 +18.3 65 +30 +30 душно 1021.8 1019.3
12 15.12 СВ 3 н/о н/о +25.1 +15.8 56 +28 +28 жарко 1021.1 1018.6
15 15.12 В 1 н/о н/о +24.2 +14.8 56 +27 +27 жарко 1022.6 1020.0
18 15.12 штиль 0 н/о н/о +21.3 +13.9 63 +24 +24 комфорт 1023.2 1020.7 +25.7
21 15.12 штиль 0 н/о н/о +18.2 +13.6 75 +18 +18 1022.6 1020.0
00 16.12 Ю 1 н/о н/о +17.8 +12.9 73 +19 +19 1022.9 1020.3
03 16.12 ЮЗ 2 н/о н/о +17.5 +12.4 72 +18 +18 1024.3 1021.7
06 16.12 С 1 н/о н/о +25.2 +12.8 46 +27 +27 жарко 1026.0 1023.4 +16.3
09 16.12 СВ 4 н/о н/о +26.1 +14.3 48 +28 +28 жарко 1023.7 1021.2
12 16.12 СВ 2 н/о н/о +25.7 +14.1 49 +28 +28 жарко 1022.4 1019.9
15 16.12 С 1 н/о н/о +21.1 +14.0 64 +24 +24 комфорт 1023.9 1021.3
18 16.12 Ю 1 н/о н/о +18.1 +13.5 74 +19 +19 1024.1 1021.5 +26.8
21 16.12 Ю 2 н/о н/о +17.7 +12.8 73 +18 +18 1023.5 1020.9
00 17.12 ЮЗ 1 н/о н/о +17.1 +10.7 66 +18 +18 1022.8 1020.2
03 17.12 Ю 2 н/о н/о +17.5 +6.5 48 +18 +18 1023.5 1020.9
06 17.12 штиль 0 н/о н/о +26.1 +6.9 29 +26 +26 жарко 1025.2 1022.6 +15.8
09 17.12 В 4 н/о н/о +25.7 +13.7 47 +28 +28 жарко 1022.4 1019.9
12 17.12 СВ 3 н/о н/о +25.4 +12.9 46 +27 +27 жарко 1021.3 1018.7
15 17.12 С 1 н/о н/о +22.5 +13.0 55 +25 +25 комфорт 1022.2 1019.6
18 17.12 ЮВ 1 н/о н/о +18.0 +12.9 72 +19 +19 1022.7 1020.1 +26.8
21 17.12 ЮЗ 1 н/о н/о +14.7 +10.7 77 +15 +15 1022.1 1019.5
00 18.12 Ю 1 н/о н/о +16.1 +9.4 64 +17 +17 1022.1 1019.5
03 18.12 ЮЗ 2 н/о н/о +14.3 +9.3 72 +14 +14 1023.1 1020.5
06 18.12 штиль 0 н/о н/о +24.9 +11.0 42 +26 +26 жарко 1024.5 1021.9 +13.7
09 18.12 СВ 4 н/о н/о +25.9 +12.8 44 +28 +28 жарко 1021.5 1019.0
12 18.12 СВ 3 н/о н/о +24.6 +12.6 47 +26 +26 жарко 1020.4 1017.8
15 18.12 штиль 0 н/о н/о +20.5 +12.1 59 +22 +22 комфорт 1021.4 1018.8
18 18.12 ЮЗ 1 н/о н/о +17.7 +11.4 67 +19 +19 1021.7 1019.1 +27.2
21 18.12 ЮЗ 1 н/о н/о +15.1 +9.3 68 +16 +16 1020.5 1017.9
00 19.12 Ю 2 н/о н/о +14.6 +10.0 74 +15 +15 1020.1 1017.5
03 19.12 ЮЗ 1 н/о н/о +13.6 +9.7 77 +15 +15 1021.1 1018.4
06 19.12 СЗ 1 н/о н/о +24.5 +12.7 48 +26 +26 жарко 1023.1 1020.6 +13.3

 

Местоположение метеостанции Diba (Оман): широта 25.62 долгота 56.25 высота над уровнем моря 20 м.

В архиве по умолчанию представлена погода в Diba за последнюю неделю. Архивные данные за месяц целиком и за предыдущие месяцы, начиная с января 2011 года, Вы можете получить, выбрав интересующий диапазон дат из раскрывающегося списка и нажав кнопку "Ввод!".


*Определитесь, кто Вы:
робот инопланетянин человек

Внимание! Время в таблицах - всемирное. Для получения местного времени необходимо прибавить поправку, которая в Diba равна 4 ч.

Смотрите также архив погоды в соседних городах и на ближайших метеорологических станциях:

Погода в Ras Al Khaimah Int Airport (ОАЭ) (32 км)
Погода в Fujairah (ОАЭ) (58 км)
Погода в Khasab Airport (Оман) (61 км)
Погода в Khasab (Оман) (66 км)
Погода в Sharjah (ОАЭ) (80 км)
Погода в Dubai (ОАЭ) (101 км)
Погода в Sohar Majis (Оман) (134 км)
Погода в Dubai Al Maktoum Int Airport (ОАЭ) (136 км)
Погода в Abu Musa Island (Иран) (144 км)
Погода в Jask (Иран) (152 км)

Пояснения к столбцам:

Ветер - указаны скорость ветра в м/с - средняя за 10 мин, порывы в срок и между сроками (в фигурных скобках) и направление, откуда дует ветер: С - северный, СВ - северо-восточный, В - восточный, ЮВ - юго-восточный, Ю - южный, ЮЗ - юго-западный, З - западный, СЗ - северо-западный.
Видимость - горизонтальная дальность видимости в метрах или километрах. При видимости от 1 до 10 км при отсутствии осадков обычно наблюдается дымка, при ухудшении видимости до 1 км и менее - туман. В сухую погоду видимость может ухудшаться дымом, пылью или мглою.
Явления - указаны атмосферные явления, наблюдавшиеся в срок или в последний час перед сроком; фигурными скобками обозначены явления, наблюдавшиеся между сроками (за 1-3 часа до срока); квадратными скобками обозначены град или гололедные отложения с указанием их диаметра в мм.
Облачность - указаны через наклонную черту общая и нижняя облачность в баллах и высота нижней границы облаков в метрах; квадратными скобками обозначены формы облаков: Ci - перистые, Cs - перисто-слоистые, Cc - перисто-кучевые, Ac - высококучевые, As - высокослоистые, Sc - слоисто-кучевые, Ns - слоисто-дождевые, Cu - кучевые, Cb - кучево-дождевые. Подробнее классификацию облаков см. в Атласе облаков (PDF).
T - Температура воздуха - температура, измеренная на высоте 2 м над землей.
Td - Температура точки росы - температура, при понижении до которой содержащийся в воздухе водяной пар достигнет насыщения.
f - Относительная влажность воздуха - влажноcть воздуха, измеренная на высоте 2 м над землей.
Te - Эффективная температура - температура, которую ощущает одетый по сезону человек в тени. Характеристика душности погоды. При расчете учитывается влияние влажности воздуха и скорости ветра на теплоощущения человека.
Tes - Эффективная температура на солнце - температура, которую ощущает человек, с поправкой на солнечный нагрев. Характеристика знойности погоды. Зависит от высоты солнца над горизонтом, облачности и скорости ветра. Ночью, в пасмурную погоду, а также при ветре 12 м/с и более поправка равна нулю.
P - Атмосферное давление - приведенное к уровню моря атмосферное давление.
Po - Атмосферное давление - измеренное на уровне метеостанции атмосферное давление.
Tmin - Минимальная температура - минимум температуры воздуха на высоте 2 м над землей.
Tmax - Максимальная температура - максимум температуры воздуха на высоте 2 м над землей.
R - Количество осадков - Количество выпавших осадков за период времени, мм. При наведении курсора мыши на число - период времени, за который выпало указанное количество осадков.
R24 - Количество осадков - Количество выпавших осадков за 24 часа, мм.
S - Снежный покров - Высота снежного покрова, см. При наведении курсора мыши на число - состояние снежного покрова и степень покрытия местности в баллах.